This is the latest recevied weather packets stored in our database for station/object K4AGR-13. If no packets are shown the sender has not sent any weather packets the latest 10 day(s).
| Time | Temp. | Humidity | Pressure | Rain* | Wind** | Luminosity | Snow |
|---|---|---|---|---|---|---|---|
| 1777705471 | 13.89° C | 97% | 1011 hPa | 0 mm | - | 0 W/m² | - |
| 1777705170 | 13.89° C | 97% | 1010.8 hPa | 1.78 mm | - | 0 W/m² | - |
| 1777704868 | 13.89° C | 97% | 1010.7 hPa | 1.78 mm | - | 0 W/m² | - |
| 1777704566 | 13.89° C | 97% | 1010.5 hPa | 0 mm | - | 0 W/m² | - |
| 1777704263 | 13.89° C | 97% | 1010.6 hPa | 0 mm | - | 0 W/m² | - |
| 1777703960 | 13.89° C | 97% | 1011.1 hPa | 0 mm | - | 0 W/m² | - |
| 1777703658 | 13.89° C | 97% | 1011.4 hPa | 1.27 mm | - | 0 W/m² | - |
| 1777703355 | 13.89° C | 97% | 1011.3 hPa | 4.32 mm | - | 0 W/m² | - |
| 1777703052 | 13.89° C | 97% | 1011.6 hPa | 7.87 mm | - | 0 W/m² | - |
| 1777702751 | 13.89° C | 97% | 1011.6 hPa | 10.16 mm | - | 0 W/m² | - |
| 1777702449 | 13.89° C | 97% | 1012.1 hPa | 8.89 mm | - | 0 W/m² | - |
| 1777702144 | 13.89° C | 97% | 1011.8 hPa | 4.83 mm | - | 0 W/m² | - |
| 1777701839 | 13.89° C | 97% | 1011.8 hPa | 1.78 mm | - | 0 W/m² | - |
| 1777701537 | 13.89° C | 97% | 1011.9 hPa | 1.27 mm | - | 0 W/m² | - |
| 1777701234 | 13.89° C | 97% | 1011.9 hPa | 3.05 mm | - | 0 W/m² | - |
| 1777700934 | 13.89° C | 97% | 1012.4 hPa | 4.32 mm | - | 0 W/m² | - |
| 1777700631 | 13.89° C | 97% | 1012 hPa | 4.83 mm | - | 0 W/m² | - |
| 1777700329 | 13.89° C | 97% | 1012.1 hPa | 4.32 mm | - | 0 W/m² | - |
| 1777700026 | 13.89° C | 97% | 1012 hPa | 4.32 mm | - | 0 W/m² | - |
| 1777699723 | 13.89° C | 97% | 1012.4 hPa | 9.65 mm | - | 0 W/m² | - |
| 1777699421 | 13.89° C | 97% | 1012.1 hPa | 10.67 mm | - | 0 W/m² | - |
| 1777699119 | 13.89° C | 96% | 1013.2 hPa | 6.1 mm | - | 0 W/m² | - |
| 1777698817 | 13.89° C | 96% | 1013.2 hPa | 1.78 mm | - | 0 W/m² | - |
| 1777698513 | 13.89° C | 96% | 1012.8 hPa | 3.05 mm | - | 0 W/m² | - |
| 1777698210 | 13.89° C | 96% | 1013 hPa | 3.05 mm | - | 0 W/m² | - |
* Rain latest hour (hover to see other rain measurements)
** Current wind speed in m/s (hover to see current wind gust speed)